Olathe, KS

4:40 PM CDT on August 23, 2017 (GMT -0500)
Johnson County Executive

Weather History for KOJC - October, 2012

Change the Weather History Date:

Wednesday, October 24, 2012

  Actual Average Record
Temperature  
Mean Temperature 75 °F 54 °F  
Max Temperature 82 °F 64 °F 86 °F (1939)
Min Temperature 67 °F 44 °F 27 °F (1981)
Degree Days  
Heating Degree Days 0 11  
Month to date heating degree days 211 187  
Since 1 July heating degree days 249 236  
Cooling Degree Days 10 0  
Month to date cooling degree days 31 27  
Year to date cooling degree days 1828 1348  
Growing Degree Days 23 (Base 50)    
Moisture  
Dew Point 64 °F    
Average Humidity 72    
Maximum Humidity 87    
Minimum Humidity 57    
Precipitation  
Precipitation 0.00 in 0.10 in 1.22 in (1977)
Month to date precipitation 1.07 2.80  
Year to date precipitation 22.79 35.27  
Sea Level Pressure  
Sea Level Pressure 29.76 in    
Wind  
Wind Speed 15 mph (South)    
Max Wind Speed 25 mph    
Max Gust Speed 33 mph    
Visibility 10 miles    
Events      
T = Trace of Precipitation, MM = Missing Value Source: NWS Daily Summary

Daily Weather History Graph

Daily Weather History Graph

Search for Another Location

Airport or City:

Trip Planner

Search our weather history database for the weather conditions in past years. The results will help you decide how hot, cold, wet, or windy it might be!

Date:

Astronomy

Oct. 24, 2012 Rise Set
Actual Time 7:38 AM CDT 6:27 PM CDT
Civil Twilight 7:10 AM CDT 6:54 PM CDT
Nautical Twilight 6:39 AM CDT 7:25 PM CDT
Astronomical Twilight 6:08 AM CDT 7:56 PM CDT
Moon 3:41 PM CDT (10/24) 2:36 AM CDT (10/24)
Length of Visible Light 11h 43m
Length of Day
10h 49m
Waxing Gibbous, 76% of the Moon is Illuminated
Oct 24
Waxing Gibbous
Oct 29
Full
Nov 6
Last Quarter
Nov 13
New
Nov 20
First Quarter

Hourly Weather History & Observations

Time (CDT) Temp. Heat Index Dew Point Humidity Pressure Visibility Wind Dir Wind Speed Gust Speed Precip Events Conditions
12:53 AM 70.0 °F - 64.9 °F 84% 29.78 in 10.0 mi South 11.5 mph 20.7 mph N/A   Overcast
1:53 AM 69.1 °F - 64.9 °F 87% 29.79 in 10.0 mi South 13.8 mph 20.7 mph N/A   Mostly Cloudy
2:04 AM 69.8 °F - 64.4 °F 83% 29.82 in 10.0 mi South 11.5 mph 20.7 mph N/A   Scattered Clouds
2:53 AM 69.1 °F - 64.9 °F 87% 29.79 in 10.0 mi South 11.5 mph - N/A   Clear
3:53 AM 68.0 °F - 64.0 °F 87% 29.79 in 10.0 mi South 12.7 mph - N/A   Clear
4:53 AM 68.0 °F - 64.0 °F 87% 29.78 in 10.0 mi South 13.8 mph 20.7 mph N/A   Clear
5:53 AM 68.0 °F - 64.0 °F 87% 29.79 in 10.0 mi South 15.0 mph 20.7 mph N/A   Clear
6:53 AM 66.9 °F - 63.0 °F 87% 29.79 in 10.0 mi South 12.7 mph 19.6 mph N/A   Clear
7:53 AM 66.9 °F - 63.0 °F 87% 29.80 in 10.0 mi South 15.0 mph 20.7 mph N/A   Clear
7:57 AM 66.2 °F - 62.6 °F 88% 29.82 in 10.0 mi South 13.8 mph 20.7 mph N/A   Partly Cloudy
8:53 AM 68.0 °F - 64.0 °F 87% 29.79 in 10.0 mi South 15.0 mph 24.2 mph N/A   Partly Cloudy
9:53 AM 71.1 °F - 64.0 °F 78% 29.79 in 10.0 mi SSW 19.6 mph 27.6 mph N/A   Scattered Clouds
10:38 AM 73.4 °F - 64.4 °F 73% 29.82 in 10.0 mi South 17.3 mph 27.6 mph N/A   Mostly Cloudy
10:48 AM 73.4 °F - 64.4 °F 73% 29.82 in 10.0 mi SSW 21.9 mph 32.2 mph N/A   Scattered Clouds
10:53 AM 73.0 °F - 64.9 °F 76% 29.79 in 10.0 mi SSW 16.1 mph 32.2 mph N/A   Scattered Clouds
11:53 AM 73.9 °F - 64.9 °F 73% 29.79 in 10.0 mi SSW 17.3 mph 27.6 mph N/A   Scattered Clouds
12:53 PM 77.0 °F - 64.9 °F 66% 29.76 in 10.0 mi South 17.3 mph 28.8 mph N/A   Partly Cloudy
1:53 PM 80.1 °F 82.1 °F 66.0 °F 62% 29.73 in 10.0 mi South 18.4 mph 29.9 mph N/A   Partly Cloudy
2:53 PM 80.1 °F 81.9 °F 64.9 °F 60% 29.72 in 10.0 mi South 15.0 mph 27.6 mph N/A   Clear
4:53 PM 80.1 °F 81.9 °F 64.9 °F 60% 29.70 in 10.0 mi South 13.8 mph 23.0 mph N/A   Scattered Clouds
5:53 PM 77.0 °F - 64.0 °F 64% 29.71 in 10.0 mi South 12.7 mph 24.2 mph N/A   Partly Cloudy
6:53 PM 75.9 °F - 64.0 °F 67% 29.71 in 10.0 mi South 15.0 mph - N/A   Clear
7:53 PM 73.9 °F - 62.1 °F 66% 29.71 in 10.0 mi South 17.3 mph 25.3 mph N/A   Clear
8:53 PM 73.9 °F - 61.0 °F 64% 29.71 in 10.0 mi South 12.7 mph - N/A   Clear
9:53 PM 72.0 °F - 61.0 °F 68% 29.71 in 10.0 mi South 10.4 mph - N/A   Scattered Clouds
10:53 PM 73.0 °F - 57.9 °F 59% 29.70 in 10.0 mi South 15.0 mph 23.0 mph N/A   Overcast
11:53 PM 72.0 °F - 59.0 °F 64% 29.71 in 10.0 mi South 10.4 mph 19.6 mph N/A   Overcast